User: anonymous   Login
Location: Conflandey
(47.7287°N, 6.0456°E)
Time: 15:00:20
(UTC+00:00)
Language:

CZ-2D R/B - Orbit

View from above orbital plane
View from above orbital plane
View from above satellite
View from above satellite

Ground track
Ground track

The orbit data is extracted from the following two-line orbital elements,

1 28738U 05024B   22023.93143423  .00001382  00000-0  82050-4 0  9990
2 28738  97.3551  37.1162 0010659 326.1553  33.8997 15.12881036909895
Epoch (UTC): 23 January 2022 22:21:15
Eccentricity: 0.0010659
inclination: 97.3551°
perigee height: 520 km
apogee height: 535 km
right ascension of ascending node: 37.1162°
argument of perigee: 326.1553°
revolutions per day: 15.12881036
mean anomaly at epoch: 33.8997°
orbit number at epoch: 90989

The dashed part of the orbit path shows where the satellite is in the earth's shadow,  

DLR